Location: Les Gen�tes
(46.3104°N, 1.5969°E)
Time: 18:18:14
(UTC+00:00)

SL-4 R/B - Pass Details

Date: 01 June 2020
Orbit: 428 x 666 km, 51.6° (Epoch: 04 July)

Event Time Altitude Azimuth Distance (km) Brightness Sun altitude
Rises 20:40:11 0° 189° (S) 2,907 5.3 -9.0°
Reaches altitude 10° 20:43:10 10° 169° (S) 2,037 4.4 -9.3°
Maximum altitude 20:46:09 17° 130° (SE) 1,661 3.8 -9.7°
Drops below altitude 10° 20:49:10 10° 91° (E) 2,083 4.6 -10.0°
Sets 20:52:16 0° 71° (ENE) 3,006 5.5 -10.4°
